Dubuque, IA

1:33 PM CDT on March 23, 2017 (GMT -0500)
Dubuque Regional

Weather History for KDBQ - April, 2013

Change the Weather History Date:

Monday, April 22, 2013

  Actual Average Record
Temperature  
Mean Temperature 55 °F 51 °F  
Max Temperature 66 °F 61 °F 93 °F (1980)
Min Temperature 43 °F 40 °F 25 °F (1986)
Degree Days  
Heating Degree Days 10 15  
Month to date heating degree days 514 407  
Since 1 July heating degree days 6937 6718  
Cooling Degree Days 0 0  
Month to date cooling degree days 0 0  
Year to date cooling degree days 0 0  
Growing Degree Days 4 (Base 50)    
Moisture  
Dew Point 40 °F    
Average Humidity 63    
Maximum Humidity 89    
Minimum Humidity 37    
Precipitation  
Precipitation 0.02 in 0.13 in 2.05 in (1999)
Month to date precipitation 8.50 2.60  
Year to date precipitation 14.49 7.62  
Snow  
Snow 0.00 in 0.10 in - ()
Month to date snowfall T 1.8  
Since 1 July snowfall 54.5 41.7  
Snow Depth 0.00 in    
Sea Level Pressure  
Sea Level Pressure 30.11 in    
Wind  
Wind Speed 13 mph (South)    
Max Wind Speed 23 mph    
Max Gust Speed 29 mph    
Visibility 10 miles    
Events      
T = Trace of Precipitation, MM = Missing Value Source: NWS Daily Summary

Daily Weather History Graph

Daily Weather History Graph

Search for Another Location

Airport or City:

Trip Planner

Search our weather history database for the weather conditions in past years. The results will help you decide how hot, cold, wet, or windy it might be!

Date:

Astronomy

Apr. 22, 2013 Rise Set
Actual Time 6:10 AM CDT 7:52 PM CDT
Civil Twilight 5:40 AM CDT 8:22 PM CDT
Nautical Twilight 5:04 AM CDT 8:58 PM CDT
Astronomical Twilight 4:25 AM CDT 9:37 PM CDT
Moon 4:38 PM CDT (4/22) 4:09 AM CDT (4/22)
Length of Visible Light 14h 41m
Length of Day
13h 42m
Waxing Gibbous, 88% of the Moon is Illuminated
Apr 22
Waxing Gibbous
Apr 25
Full
May 2
Last Quarter
May 9
New
May 17
First Quarter

Hourly Weather History & Observations

Time (CDT) Temp. Windchill Dew Point Humidity Pressure Visibility Wind Dir Wind Speed Gust Speed Precip Events Conditions
12:53 AM 46.9 °F - 39.0 °F 74% 30.22 in 10.0 mi SSE 15.0 mph - N/A   Overcast
1:53 AM 46.9 °F - 39.0 °F 74% 30.22 in 10.0 mi South 15.0 mph - N/A   Overcast
2:53 AM 46.0 °F 39.9 °F 39.9 °F 79% 30.21 in 10.0 mi SSE 13.8 mph - 0.01 in   Overcast
3:53 AM 45.0 °F 37.1 °F 39.0 °F 80% 30.19 in 10.0 mi SSE 19.6 mph - N/A   Overcast
4:53 AM 45.0 °F 38.5 °F 39.0 °F 80% 30.20 in 10.0 mi SSE 13.8 mph - 0.01 in   Overcast
5:53 AM 43.0 °F 37.7 °F 39.0 °F 86% 30.20 in 10.0 mi SSE 9.2 mph - N/A   Overcast
6:53 AM 43.0 °F 37.7 °F 39.0 °F 86% 30.20 in 10.0 mi South 9.2 mph - N/A   Mostly Cloudy
7:53 AM 45.0 °F 39.3 °F 39.0 °F 80% 30.19 in 10.0 mi South 11.5 mph - N/A   Mostly Cloudy
8:53 AM 48.0 °F - 39.9 °F 74% 30.18 in 10.0 mi South 12.7 mph - N/A   Overcast
9:53 AM 52.0 °F - 39.9 °F 63% 30.17 in 10.0 mi South 16.1 mph - N/A   Overcast
10:53 AM 55.0 °F - 39.9 °F 57% 30.17 in 10.0 mi South 12.7 mph - N/A   Scattered Clouds
11:53 AM 57.9 °F - 39.9 °F 51% 30.15 in 10.0 mi South 15.0 mph 20.7 mph N/A   Mostly Cloudy
12:53 PM 61.0 °F - 41.0 °F 48% 30.13 in 10.0 mi South 15.0 mph - N/A   Mostly Cloudy
1:53 PM 63.0 °F - 39.9 °F 43% 30.09 in 10.0 mi South 16.1 mph - 0.00 in   Mostly Cloudy
2:53 PM 64.0 °F - 39.0 °F 40% 30.06 in 10.0 mi South 16.1 mph 25.3 mph N/A   Mostly Cloudy
3:53 PM 64.0 °F - 37.0 °F 37% 30.03 in 10.0 mi South 20.7 mph 25.3 mph N/A   Scattered Clouds
4:53 PM 64.0 °F - 37.9 °F 38% 30.01 in 10.0 mi SSE 20.7 mph 25.3 mph N/A   Overcast
5:53 PM 63.0 °F - 37.0 °F 38% 30.00 in 10.0 mi South 18.4 mph - N/A   Partly Cloudy
6:53 PM 61.0 °F - 39.9 °F 46% 29.99 in 10.0 mi SSE 13.8 mph - N/A   Clear
7:53 PM 57.0 °F - 41.0 °F 55% 29.99 in 10.0 mi South 9.2 mph - N/A   Clear
8:53 PM 54.0 °F - 43.0 °F 66% 30.00 in 10.0 mi South 8.1 mph - N/A   Mostly Cloudy
9:53 PM 54.0 °F - 42.1 °F 64% 30.01 in 10.0 mi SSW 10.4 mph - N/A   Overcast
10:53 PM 55.0 °F - 43.0 °F 64% 30.02 in 10.0 mi SSW 13.8 mph - N/A   Overcast
11:53 PM 51.1 °F - 48.0 °F 89% 30.01 in 10.0 mi SW 4.6 mph - 0.00 in   Overcast